When you browse on this site, cookies collect data to enhance your experience and personalize the content and advertising you see.
Visit our Privacy Policy to learn more. By continuing to use the site, you agree to this use of cookies and data.
  • In Schweiz
  • Länderverzeichnis
  • Für 7 Tage
  • Wassertemperatur
  • Satellitenkarten
  • Wetterkarte
  • Widgets
  • user-avatar
    Anmelden

    Stündliche Wetter Plakhtyanka

    Heute, 22 April, Montag

    Zeit Temperatur Niederschläge Wind Luftdruck Luftfeuchtigkeit
    00:00 +8°C° 0 mm 2 m/S 753 mmHg 57%
    01:00 +8°C° 0 mm 2 m/S 753 mmHg 56%
    02:00 +7°C° 0 mm 2 m/S 753 mmHg 55%
    03:00 +8°C° 0 mm 2 m/S 754 mmHg 54%
    04:00 +8°C° 0 mm 2 m/S 754 mmHg 54%
    05:00 +8°C° 0 mm 2 m/S 754 mmHg 53%
    06:00 +9°C° 0 mm 3 m/S 754 mmHg 51%
    07:00 +10°C° 0 mm 3 m/S 755 mmHg 49%
    08:00 +11°C° 0 mm 3 m/S 755 mmHg 46%
    09:00 +12°C° 0 mm 4 m/S 755 mmHg 42%
    10:00 +13°C° 0 mm 4 m/S 755 mmHg 37%
    11:00 +14°C° 0 mm 5 m/S 756 mmHg 32%
    12:00 +15°C° 0 mm 4 m/S 756 mmHg 32%
    13:00 +15°C° 0 mm 4 m/S 756 mmHg 32%
    14:00 +15°C° 0 mm 4 m/S 756 mmHg 32%
    15:00 +15°C° 0 mm 4 m/S 756 mmHg 34%
    16:00 +16°C° 0 mm 3 m/S 756 mmHg 37%
    17:00 +14°C° 0 mm 3 m/S 756 mmHg 39%
    18:00 +14°C° 0 mm 2 m/S 756 mmHg 43%
    19:00 +13°C° 0 mm 2 m/S 756 mmHg 46%
    20:00 +10°C° 0 mm 2 m/S 756 mmHg 49%
    21:00 +10°C° 0 mm 2 m/S 757 mmHg 51%
    22:00 +9°C° 0 mm 2 m/S 757 mmHg 54%
    23:00 +8°C° 0 mm 2 m/S 757 mmHg 56%

    Morgen, 23 April, Dienstag

    Zeit Temperatur Niederschläge Wind Luftdruck Luftfeuchtigkeit
    00:00 +8°C° 0 mm 2 m/S 757 mmHg 57%
    01:00 +7°C° 0 mm 2 m/S 757 mmHg 58%
    02:00 +7°C° 0 mm 2 m/S 758 mmHg 59%
    03:00 +7°C° 0 mm 2 m/S 758 mmHg 59%
    04:00 +7°C° 0 mm 2 m/S 758 mmHg 58%
    05:00 +8°C° 0 mm 2 m/S 758 mmHg 58%
    06:00 +9°C° 0 mm 2 m/S 758 mmHg 55%
    07:00 +10°C° 0 mm 3 m/S 758 mmHg 52%
    08:00 +12°C° 0 mm 3 m/S 758 mmHg 49%
    09:00 +13°C° 0 mm 4 m/S 758 mmHg 43%
    10:00 +15°C° 0 mm 4 m/S 759 mmHg 37%
    11:00 +17°C° 0 mm 4 m/S 759 mmHg 32%
    12:00 +17°C° 0 mm 4 m/S 758 mmHg 32%
    13:00 +17°C° 0 mm 4 m/S 758 mmHg 33%
    14:00 +17°C° 0 mm 4 m/S 758 mmHg 34%
    15:00 +17°C° 0 mm 4 m/S 758 mmHg 36%
    16:00 +17°C° 0 mm 4 m/S 757 mmHg 37%
    17:00 +17°C° 0 mm 4 m/S 757 mmHg 39%
    18:00 +15°C° 0 mm 4 m/S 757 mmHg 42%
    19:00 +13°C° 0 mm 3 m/S 757 mmHg 46%
    20:00 +13°C° 0 mm 2 m/S 757 mmHg 50%
    21:00 +12°C° 0 mm 2 m/S 757 mmHg 53%
    22:00 +10°C° 0 mm 2 m/S 758 mmHg 56%
    23:00 +9°C° 0 mm 2 m/S 758 mmHg 60%

    übermorgen, 24 April, Mittwoch

    Zeit Temperatur Niederschläge Wind Luftdruck Luftfeuchtigkeit
    00:00 +9°C° 0 mm 2 m/S 758 mmHg 61%
    01:00 +9°C° 0 mm 2 m/S 758 mmHg 62%
    02:00 +8°C° 0 mm 2 m/S 758 mmHg 64%
    03:00 +8°C° 0 mm 2 m/S 758 mmHg 65%
    04:00 +7°C° 0 mm 2 m/S 758 mmHg 66%
    05:00 +7°C° 0 mm 2 m/S 758 mmHg 67%
    06:00 +9°C° 0 mm 2 m/S 758 mmHg 63%
    07:00 +11°C° 0 mm 3 m/S 758 mmHg 58%
    08:00 +12°C° 0 mm 3 m/S 759 mmHg 54%
    09:00 +14°C° 0 mm 3 m/S 759 mmHg 48%
    10:00 +15°C° 0 mm 4 m/S 759 mmHg 43%
    11:00 +17°C° 0 mm 5 m/S 759 mmHg 37%
    12:00 +17°C° 0 mm 5 m/S 759 mmHg 37%
    13:00 +19°C° 0 mm 4 m/S 758 mmHg 37%
    14:00 +19°C° 0 mm 4 m/S 758 mmHg 37%
    15:00 +19°C° 0 mm 4 m/S 758 mmHg 38%
    16:00 +19°C° 0 mm 4 m/S 758 mmHg 39%
    17:00 +19°C° 0 mm 4 m/S 757 mmHg 41%
    18:00 +17°C° 0 mm 3 m/S 757 mmHg 46%
    19:00 +14°C° 0 mm 3 m/S 757 mmHg 51%
    20:00 +13°C° 0 mm 2 m/S 757 mmHg 56%
    21:00 +13°C° 0 mm 2 m/S 757 mmHg 58%
    22:00 +12°C° 0 mm 2 m/S 758 mmHg 60%
    23:00 +10°C° 0 mm 3 m/S 758 mmHg 61%

    25 April, Donnerstag

    Zeit Temperatur Niederschläge Wind Luftdruck Luftfeuchtigkeit
    00:00 +10°C° 0 mm 2 m/S 758 mmHg 62%
    01:00 +10°C° 0 mm 2 m/S 758 mmHg 63%
    02:00 +9°C° 0 mm 2 m/S 758 mmHg 65%
    03:00 +9°C° 0 mm 2 m/S 758 mmHg 66%
    04:00 +8°C° 0 mm 2 m/S 758 mmHg 67%
    05:00 +8°C° 0 mm 2 m/S 758 mmHg 68%
    06:00 +10°C° 0 mm 2 m/S 758 mmHg 63%
    07:00 +13°C° 0 mm 2 m/S 758 mmHg 58%
    08:00 +14°C° 0 mm 3 m/S 758 mmHg 53%
    09:00 +16°C° 0 mm 3 m/S 758 mmHg 49%
    10:00 +18°C° 0 mm 4 m/S 758 mmHg 44%
    11:00 +19°C° 0 mm 5 m/S 758 mmHg 39%
    12:00 +20°C° 0 mm 5 m/S 758 mmHg 38%
    13:00 +20°C° 0 mm 5 m/S 757 mmHg 38%
    14:00 +21°C° 0 mm 5 m/S 757 mmHg 38%
    15:00 +21°C° 0 mm 4 m/S 756 mmHg 39%
    16:00 +20°C° 0 mm 4 m/S 756 mmHg 40%
    17:00 +20°C° 0 mm 4 m/S 756 mmHg 42%
    18:00 +18°C° 0 mm 3 m/S 755 mmHg 47%
    19:00 +16°C° 0 mm 3 m/S 755 mmHg 53%
    20:00 +15°C° 0 mm 2 m/S 755 mmHg 58%
    21:00 +14°C° 0 mm 2 m/S 755 mmHg 60%
    22:00 +13°C° 0 mm 2 m/S 755 mmHg 62%
    23:00 +13°C° 0 mm 2 m/S 755 mmHg 64%

    26 April, Freitag

    Zeit Temperatur Niederschläge Wind Luftdruck Luftfeuchtigkeit
    00:00 +12°C° 0 mm 2 m/S 755 mmHg 65%
    01:00 +12°C° 0 mm 2 m/S 755 mmHg 66%
    02:00 +10°C° 0 mm 2 m/S 755 mmHg 67%
    03:00 +10°C° 0 mm 2 m/S 754 mmHg 66%
    04:00 +10°C° 0 mm 2 m/S 754 mmHg 65%
    05:00 +9°C° 0 mm 3 m/S 754 mmHg 65%
    06:00 +11°C° 0 mm 3 m/S 754 mmHg 59%
    07:00 +13°C° 0 mm 4 m/S 754 mmHg 54%
    08:00 +15°C° 0 mm 5 m/S 754 mmHg 49%
    09:00 +16°C° 0 mm 5 m/S 754 mmHg 45%
    10:00 +19°C° 0 mm 6 m/S 753 mmHg 41%
    11:00 +20°C° 0 mm 6 m/S 753 mmHg 37%
    12:00 +21°C° 0 mm 6 m/S 752 mmHg 37%
    13:00 +21°C° 0 mm 6 m/S 752 mmHg 37%
    14:00 +22°C° 0 mm 6 m/S 752 mmHg 37%
    15:00 +22°C° 0 mm 6 m/S 751 mmHg 40%
    16:00 +21°C° 0 mm 5 m/S 751 mmHg 42%
    17:00 +21°C° 0 mm 4 m/S 751 mmHg 44%
    18:00 +19°C° 0 mm 4 m/S 751 mmHg 50%
    19:00 +17°C° 0 mm 3 m/S 750 mmHg 57%
    20:00 +16°C° 0 mm 2 m/S 750 mmHg 63%
    21:00 +15°C° 0 mm 2 m/S 750 mmHg 64%
    22:00 +14°C° 0 mm 3 m/S 750 mmHg 66%
    23:00 +13°C° 0 mm 3 m/S 750 mmHg 68%

    27 April, Samstag

    Zeit Temperatur Niederschläge Wind Luftdruck Luftfeuchtigkeit
    00:00 +13°C° 0 mm 3 m/S 750 mmHg 69%
    01:00 +13°C° 0 mm 2 m/S 750 mmHg 71%
    02:00 +12°C° 0 mm 2 m/S 750 mmHg 72%
    03:00 +12°C° 0 mm 2 m/S 750 mmHg 72%
    04:00 +12°C° 0 mm 2 m/S 750 mmHg 71%
    05:00 +10°C° 0 mm 3 m/S 750 mmHg 71%
    06:00 +12°C° 0 mm 3 m/S 750 mmHg 67%
    07:00 +14°C° 0 mm 3 m/S 750 mmHg 62%
    08:00 +16°C° 0 mm 3 m/S 750 mmHg 58%
    09:00 +18°C° 0 mm 4 m/S 750 mmHg 52%
    10:00 +20°C° 0 mm 4 m/S 750 mmHg 46%
    11:00 +21°C° 0 mm 5 m/S 750 mmHg 40%
    12:00 +22°C° 0 mm 5 m/S 750 mmHg 40%
    13:00 +22°C° 0 mm 5 m/S 750 mmHg 39%
    14:00 +23°C° 0 mm 4 m/S 750 mmHg 39%
    15:00 +23°C° 0 mm 4 m/S 750 mmHg 40%
    16:00 +23°C° 0 mm 4 m/S 750 mmHg 41%
    17:00 +22°C° 0 mm 3 m/S 750 mmHg 42%
    18:00 +21°C° 0 mm 3 m/S 750 mmHg 48%
    19:00 +19°C° 0 mm 3 m/S 750 mmHg 54%
    20:00 +17°C° 0 mm 3 m/S 750 mmHg 60%
    21:00 +16°C° 0 mm 3 m/S 750 mmHg 62%
    22:00 +16°C° 0 mm 3 m/S 751 mmHg 64%
    23:00 +14°C° 0 mm 3 m/S 751 mmHg 66%
    Mehr zeigen